Location: Shepherdstown, WV
(39.4326°N, 77.8042°W)
Time: 19:12:19
(UTC-04:00)

X-37B - Pass Details

Date: 25 June 2021
Orbit: 383 x 392 km, 45.0° (Epoch: 01 July)

Event Time Altitude Azimuth Distance (km) Brightness Sun altitude
Rises 22:19:05 0° 264° (W) 2,252 5.0 -15.1°
Reaches altitude 10° 22:21:13 10° 272° (W) 1,399 4.0 -15.4°
Maximum altitude 22:24:13 41° 345° (NNW) 573 1.9 -15.7°
Drops below altitude 10° 22:27:13 10° 57° (ENE) 1,402 3.3 -16.1°
Enters shadow 22:28:36 - 63° (ENE) 1,947 4.0 -16.3°
